Location: Bukit Nyuki
(2.5885°N, 113.7476°E)
Time: 16:16:26
(UTC+00:00)

Meteor 1-20 Rocket - Pass Details

Date: 18 May 2021
Orbit: 818 x 893 km, 81.2° (Epoch: 20 June)

Event Time Altitude Azimuth Distance (km) Brightness Sun altitude
Rises 12:13:07 0° 359° (N) 3,338 7.6 -25.2°
Reaches altitude 10° 12:15:32 10° 2° (N) 2,404 6.8 -25.7°
Enters shadow 12:20:12 61° 38° (NE) 921 4.2 -26.8°
